Weather reports worldwide

Advertisment
Werl, Germany (10424): temperature & dewpoint: 10.07.2018 18:00:00 - 16.07.2018 18:00:00 (CEST)Werl, Germany (10424): temperature 5cm & temperature -5cm: 10.07.2018 18:00:00 - 16.07.2018 18:00:00 (CEST)Werl, Germany (10424): temperature -20cm & temperature -100cm: 10.07.2018 18:00:00 - 16.07.2018 18:00:00 (CEST)Werl, Germany (10424): wind speed & gusts: 10.07.2018 18:00:00 - 16.07.2018 18:00:00 (CEST)Werl, Germany (10424): wind direction: 10.07.2018 18:00:00 - 16.07.2018 18:00:00 (CEST)Werl, Germany (10424): reduced air pressure: 10.07.2018 18:00:00 - 16.07.2018 18:00:00 (CEST)Werl, Germany (10424): visibility: 10.07.2018 18:00:00 - 16.07.2018 18:00:00 (CEST)Werl, Germany (10424): sunshine duration: 10.07.2018 18:00:00 - 16.07.2018 18:00:00 (CEST)Werl, Germany (10424): precipitation: 10.07.2018 18:00:00 - 16.07.2018 18:00:00 (CEST)
Date & Time tt [°C] td [°C] tt 5cm [°C] tt -5cm [°C] tt -20cm [°C] tt -100cm [°C] ff [km/h] ff [kn] fx [km/h] fx [kn] dd ppp [hPa] vv [km] sd [min] rr [mm]
16.07.2018 18:00:00 29,4 7,1 32,9 35,4 27,3 18,2 8 4 18 10 NW 1011,0 52 60 0,0
16.07.2018 17:00:00 29,5 6,2 34,4 36,1 26,6 18,2 6 3 19 10 N 1011,3 61 60 0,0
16.07.2018 16:00:00 28,7 9,0 34,8 35,9 25,7 18,2 8 5 19 11 N 1011,6 51 60 0,0
16.07.2018 15:00:00 28,5 8,3 33,8 35,3 24,7 18,2 6 4 14 8 ESE 1012,3 50 60 0,0
16.07.2018 14:00:00 27,2 8,6 32,9 33,7 23,6 18,2 7 4 24 13 E 1012,9 52 60 0,0
16.07.2018 13:00:00 26,3 11,4 33,4 31,5 22,6 18,2 7 4 16 8 N 1013,5 36 60 0,0
16.07.2018 12:00:00 25,0 11,4 31,3 29,0 21,6 18,2 8 5 16 9 N 1013,8 43 60 0,0
16.07.2018 11:00:00 22,8 10,4 26,6 26,0 20,9 18,2 5 3 11 6 ENE 1013,9 51 60 0,0
16.07.2018 10:00:00 21,1 10,8 25,7 23,0 20,4 18,2 6 3 10 6 N 1014,1 44 60 0,0
16.07.2018 09:00:00 18,6 11,0 22,3 20,3 20,2 18,2 4 2 7 4 N 1014,4 37 60 0,0
16.07.2018 08:00:00 16,4 11,3 18,8 18,1 20,4 18,2 2 1 7 4 NE 1014,7 30 60 0,0
16.07.2018 07:00:00 13,9 11,5 14,3 16,9 20,7 18,2 0 0 7 4 N 1014,9 28 36 0,0
16.07.2018 06:00:00 11,1 9,9 9,0 17,0 21,2 18,2 0 0 0 0 N 1015,1 17 0 0,0
16.07.2018 05:00:00 11,8 10,1 8,9 17,6 21,7 18,2 0 0 0 0 N 1015,1 24 0 0,0
16.07.2018 04:00:00 12,1 10,2 9,7 18,3 22,3 18,2 0 0 6 3 N 1015,3 28 0 0,0
16.07.2018 03:00:00 12,3 9,9 10,1 19,1 22,8 18,2 5 3 6 3 N 1015,7 36 0 0,0
16.07.2018 02:00:00 13,7 10,6 11,8 20,0 23,4 18,1 3 2 6 4 ENE 1016,0 44 0 0,0
16.07.2018 01:00:00 14,7 10,9 11,5 21,0 24,1 18,1 0 0 0 0 N 1016,0 52 0 0,0
16.07.2018 00:00:00 16,4 10,3 12,2 22,2 24,7 18,1 0 0 0 0 N 1015,8 59 0 0,0
15.07.2018 23:00:00 18,5 10,4 13,4 23,6 25,4 18,1 0 0 9 5 N 1015,7 70 0 0,0
15.07.2018 22:00:00 19,9 10,7 16,1 25,5 25,9 18,1 8 4 17 9 NNE 1015,4 63 16 0,0
15.07.2018 21:00:00 23,1 9,4 22,0 27,9 26,3 18,1 10 5 21 12 NNE 1014,9 70 60 0,0
15.07.2018 20:00:00 24,9 7,7 26,4 30,2 26,4 18,1 13 7 23 12 NE 1014,8 70 60 0,0
15.07.2018 19:00:00 25,6 7,3 28,8 32,0 26,2 18,1 14 7 24 13 NE 1015,0 70 60 0,0
15.07.2018 18:00:00 26,5 8,5 29,7 33,4 25,8 18,1 10 5 33 18 NE 1015,1 67 60 0,0
15.07.2018 17:00:00 26,3 7,9 31,0 33,9 25,2 18,1 12 7 29 15 NE 1015,4 54 60 0,0
15.07.2018 16:00:00 25,6 6,7 30,6 34,0 24,4 18,1 10 5 22 12 NE 1015,9 63 60 0,0
15.07.2018 15:00:00 25,0 6,5 31,3 33,1 23,4 18,1 11 6 22 12 NE 1016,5 52 60 0,0
15.07.2018 14:00:00 24,5 9,2 30,5 31,8 22,4 18,1 10 6 26 14 NE 1017,2 47 60 0,0
15.07.2018 13:00:00 23,0 9,0 28,3 29,7 21,4 18,1 13 7 26 14 E 1017,7 46 60 0,0
15.07.2018 12:00:00 22,2 10,5 26,8 27,3 20,5 18,1 8 5 24 13 NE 1018,0 51 60 0,0
15.07.2018 11:00:00 21,4 11,7 26,2 24,4 19,7 18,1 13 7 21 11 NNE 1018,3 38 60 0,0
15.07.2018 10:00:00 19,6 12,8 23,5 21,6 19,3 18,1 9 5 16 9 ENE 1018,3 29 60 0,0
15.07.2018 09:00:00 17,3 12,3 20,3 19,1 19,1 18,1 9 5 16 8 ENE 1018,5 18 60 0,0
15.07.2018 08:00:00 15,6 12,2 17,4 17,1 19,2 18,1 5 3 8 4 NE 1018,5 13 60 0,0
15.07.2018 07:00:00 13,9 11,9 13,7 15,9 19,6 18,1 0 0 0 0 N 1018,3 8 37 0,0
15.07.2018 06:00:00 11,6 11,0 9,3 15,8 20,0 18,1 0 0 0 0 N 1018,6 6 0 0,0
15.07.2018 05:00:00 12,0 10,9 9,8 16,4 20,5 18,1 0 0 0 0 N 1018,8 11 0 0,0
15.07.2018 04:00:00 12,2 10,9 10,7 17,1 21,0 18,1 0 0 0 0 N 1018,9 13 0 0,0
15.07.2018 03:00:00 12,9 11,0 10,3 17,8 21,5 18,1 0 0 0 0 N 1019,1 21 0 0,0
15.07.2018 02:00:00 14,3 11,3 11,2 18,6 22,1 18,1 0 0 0 0 N 1019,2 26 0 0,0
15.07.2018 01:00:00 15,7 11,7 11,7 19,6 22,7 18,1 0 0 7 4 N 1019,3 31 0 0,0
15.07.2018 00:00:00 17,1 11,7 12,7 20,7 23,3 18,1 5 3 12 7 ENE 1019,0 38 0 0,0
14.07.2018 23:00:00 18,1 11,6 13,7 22,0 23,9 18,1 7 4 10 5 N 1018,9 42 0 0,0
14.07.2018 22:00:00 19,3 12,2 15,3 23,8 24,4 18,1 8 4 13 7 N 1018,4 43 17 0,0
14.07.2018 21:00:00 22,7 11,4 21,6 25,9 24,7 18,1 9 5 17 9 N 1017,9 52 60 0,0
14.07.2018 20:00:00 24,1 11,5 25,8 28,0 24,8 18,1 12 7 21 11 N 1017,8 51 60 0,0
14.07.2018 19:00:00 24,9 11,8 28,3 29,6 24,6 18,1 9 5 19 11 NNW 1017,8 41 51 0,0
14.07.2018 18:00:00 25,5 12,4 28,8 30,8 24,2 18,1 9 5 22 12 NNW 1018,0 37 57 0,0
14.07.2018 17:00:00 25,4 12,4 29,3 31,1 23,7 18,1 11 6 22 12 NNW 1018,3 30 49 0,0
14.07.2018 16:00:00 24,6 12,9 28,3 30,8 23,1 18,1 11 6 23 12 NW 1018,9 29 43 0,0
14.07.2018 15:00:00 24,8 12,7 29,9 30,6 22,2 18,1 12 6 22 12 NW 1019,2 22 59 0,0
14.07.2018 14:00:00 24,2 13,9 30,6 28,7 21,5 18,1 10 6 21 11 NNE 1019,7 25 59 0,0
14.07.2018 13:00:00 23,2 14,3 28,7 27,2 20,7 18,1 10 5 21 11 NNE 1020,1 18 59 0,0
14.07.2018 12:00:00 22,0 13,5 26,7 25,4 20,0 18,1 8 4 15 8 NNE 1020,6 18 53 0,0
14.07.2018 11:00:00 20,6 14,1 23,8 23,6 19,3 18,1 6 4 18 10 NNE 1020,8 19 60 0,0
14.07.2018 10:00:00 19,1 14,0 23,1 21,2 18,9 18,1 9 5 16 9 NNE 1021,0 14 60 0,0
14.07.2018 09:00:00 17,1 13,4 19,3 19,0 18,7 18,2 5 3 10 5 E 1020,8 9 39 0,0
14.07.2018 08:00:00 15,7 13,0 18,0 17,1 18,7 18,2 7 4 11 6 NE 1020,8 9 58 0,0
14.07.2018 07:00:00 14,3 12,9 14,0 16,0 19,0 18,2 5 3 7 4 NE 1020,7 6 26 0,0
14.07.2018 06:00:00 13,2 12,5 10,9 15,8 19,4 18,2 5 3 6 3 NNE 1020,7 4,2 0 0,0
14.07.2018 05:00:00 13,5 12,5 10,9 16,4 19,8 18,2 5 3 8 4 N 1020,8 6 0 0,0
14.07.2018 04:00:00 14,3 12,6 11,4 17,0 20,2 18,2 5 3 7 4 N 1020,6 10 0 0,0
14.07.2018 03:00:00 15,3 13,3 12,9 17,6 20,6 18,2 6 4 9 5 NE 1020,4 13 0 0,0
14.07.2018 02:00:00 15,9 13,2 13,4 18,2 21,0 18,2 7 4 9 5 N 1020,6 19 0 0,0
14.07.2018 01:00:00 16,4 13,6 14,7 18,9 21,4 18,2 0 0 9 5 N 1020,5 24 0 0,0
14.07.2018 00:00:00 16,8 13,4 14,0 19,5 21,9 18,2 8 4 8 4 N 1020,2 27 0 0,0
13.07.2018 23:00:00 17,8 13,6 15,0 20,6 22,4 18,2 2 1 7 4 NE 1020,0 33 0 0,0
13.07.2018 22:00:00 20,6 13,4 16,2 22,0 22,8 18,2 5 3 7 4 ENE 1019,4 38 13 0,0
13.07.2018 21:00:00 23,1 12,4 21,7 23,6 23,1 18,2 7 4 11 6 NNE 1019,0 44 60 0,0
13.07.2018 20:00:00 24,8 10,7 26,2 25,1 23,3 18,2 8 4 14 8 NNE 1019,1 52 56 0,0
13.07.2018 19:00:00 25,2 11,0 27,7 26,3 23,3 18,3 9 5 19 11 N 1019,1 42 58 0,0
13.07.2018 18:00:00 24,4 12,0 25,1 27,5 23,1 18,3 9 5 22 12 N 1019,5 47 42 0,0
13.07.2018 17:00:00 26,1 12,0 29,8 28,7 22,7 18,3 7 4 21 12 NNW 1019,7 31 52 0,0
13.07.2018 16:00:00 24,9 11,3 29,7 28,9 22,1 18,3 10 6 21 11 NNW 1020,1 31 60 0,0
13.07.2018 15:00:00 24,2 11,6 29,6 28,4 21,4 18,3 12 6 24 13 N 1020,3 31 60 0,0
13.07.2018 14:00:00 23,4 12,3 28,4 27,9 20,6 18,3 9 5 18 10 NW 1020,7 24 60 0,0
13.07.2018 13:00:00 22,1 12,6 26,3 26,5 19,7 18,3 9 5 19 10 WNW 1021,2 20 60 0,0
13.07.2018 12:00:00 20,0 12,6 23,9 24,8 18,8 18,3 8 5 18 10 W 1021,3 17 60 0,0
13.07.2018 11:00:00 18,1 13,2 21,3 22,0 18,2 18,3 7 4 14 7 W 1021,4 15 52 0,0
13.07.2018 10:00:00 16,7 13,5 19,4 19,2 17,8 18,3 8 4 13 7 WNW 1021,5 7 17 0,0
13.07.2018 09:00:00 15,4 14,0 16,3 17,3 17,7 18,3 6 4 11 6 WNW 1021,3 4,6 0 0,0
13.07.2018 08:00:00 14,9 13,9 15,2 16,2 17,7 18,3 5 3 8 4 W 1021,0 5 34 0,0
13.07.2018 07:00:00 13,8 13,1 13,7 15,0 18,0 18,4 3 2 6 3 SW 1020,9 4,5 36 0,0
13.07.2018 06:00:00 12,4 12,0 10,8 14,9 18,3 18,4 4 2 7 4 S 1020,8 1,6 0 0,0
13.07.2018 05:00:00 12,8 11,7 10,1 15,3 18,7 18,4 5 3 12 6 W 1020,5 9 0 0,0
13.07.2018 04:00:00 13,2 12,8 11,5 15,9 19,0 18,4 7 4 9 5 WNW 1020,4 0,9 0 0,0
13.07.2018 03:00:00 13,9 13,5 12,1 16,5 19,4 18,4 5 3 6 4 WSW 1020,1 2,2 0 0,0
13.07.2018 02:00:00 14,6 14,3 12,7 17,2 19,8 18,4 4 2 8 5 W 1019,7 2,0 0 0,0
13.07.2018 01:00:00 15,9 15,6 14,3 17,8 20,1 18,4 0 0 8 4 N 1019,5 1,7 0 0,0
13.07.2018 00:00:00 15,4 15,1 14,0 18,3 20,5 18,4 4 2 8 4 SW 1019,6 2,0 0 0,0
12.07.2018 23:00:00 15,8 15,3 14,3 19,1 20,9 18,5 6 4 12 6 W 1019,4 3,2 0 0,0
12.07.2018 22:00:00 16,9 15,7 15,0 20,3 21,2 18,5 3 1 10 5 SSW 1018,8 9 0 0,0
12.07.2018 21:00:00 18,9 16,9 18,0 21,6 21,3 18,5 7 4 13 7 S 1018,3 16 33 0,2
12.07.2018 20:00:00 18,5 16,8 18,2 21,7 21,5 18,5 10 6 24 13 N 1018,6 5 0 1,1
12.07.2018 19:00:00 22,0 15,3 22,1 23,3 21,6 18,5 0 0 13 7 N 1017,5 34 0 0,0
12.07.2018 18:00:00 20,9 15,4 21,7 23,3 21,6 18,5 10 5 19 11 SSW 1017,7 30 9 0,0
12.07.2018 17:00:00 19,7 15,6 19,4 23,8 21,6 18,5 11 6 26 14 WSW 1017,9 20 0 0,3
12.07.2018 16:00:00 23,2 14,6 24,2 26,3 21,2 18,5 11 6 21 11 WSW 1017,7 20 30 0,0
12.07.2018 15:00:00 22,4 14,3 23,3 25,1 20,9 18,6 11 6 26 14 W 1017,9 22 14 0,0
12.07.2018 14:00:00 22,2 14,2 23,5 26,7 20,1 18,6 11 6 21 11 WNW 1018,1 19 28 0,0
12.07.2018 13:00:00 21,5 14,9 23,8 26,2 19,3 18,6 9 5 19 10 W 1018,3 11 41 0,0
12.07.2018 12:00:00 20,3 14,8 23,6 24,0 18,5 18,6 6 3 15 8 W 1018,6 7 45 0,0
12.07.2018 11:00:00 18,5 14,5 21,1 20,7 18,0 18,6 5 3 14 8 SW 1018,5 7 13 0,0
12.07.2018 10:00:00 16,9 14,9 18,5 19,0 17,7 18,6 9 5 14 8 W 1018,6 4,7 1 0,0
12.07.2018 09:00:00 15,8 14,6 16,8 17,6 17,5 18,6 5 3 10 6 W 1018,0 3,9 0 0,0
12.07.2018 08:00:00 15,0 14,8 15,8 16,7 17,4 18,7 7 4 13 7 WNW 1017,7 2,2 0 0,0
12.07.2018 07:00:00 15,2 14,8 15,3 15,9 17,5 18,7 3 2 6 3 W 1017,4 0,8 0 0,0
12.07.2018 06:00:00 14,0 13,8 13,0 15,4 17,7 18,7 5 3 7 4 WNW 1017,2 0,2 0 0,0
12.07.2018 05:00:00 13,3 13,1 12,7 15,3 17,9 18,7 4 2 10 5 W 1017,0 0,1 0 0,0
12.07.2018 04:00:00 13,7 13,4 13,2 15,7 18,1 18,7 6 3 11 6 SSW 1017,1 0,1 0 0,0
12.07.2018 03:00:00 14,4 13,7 13,1 16,4 18,3 18,7 8 4 10 5 NNW 1017,1 3,1 0 0,0
12.07.2018 02:00:00 15,6 14,9 15,0 16,9 18,5 18,7 8 4 14 7 NW 1017,2 3,7 0 0,0
12.07.2018 01:00:00 15,7 14,9 14,7 17,1 18,7 18,7 9 5 13 7 NNW 1016,8 4,2 0 0,0
12.07.2018 00:00:00 16,1 15,4 15,6 17,5 18,8 18,8 7 4 14 8 NW 1016,8 3,4 0 0,0
11.07.2018 23:00:00 16,4 15,5 16,2 17,8 18,9 18,8 9 5 12 7 NW 1016,6 4,4 0 0,0
11.07.2018 22:00:00 16,3 15,4 16,2 18,1 19,0 18,8 7 4 16 9 NW 1016,4 6 0 0,0
11.07.2018 21:00:00 16,9 15,4 17,0 18,4 19,0 18,8 10 5 18 10 NNW 1016,1 11 0 0,1
11.07.2018 20:00:00 17,1 16,0 17,1 18,8 19,1 18,8 9 5 17 9 NW 1015,8 7 0 0,0
11.07.2018 19:00:00 17,4 16,3 17,4 18,9 19,1 18,8 8 5 13 7 NW 1015,5 8 0 0,6
11.07.2018 18:00:00 16,9 16,1 16,9 18,8 19,1 18,8 14 7 19 11 WNW 1015,5 3,5 0 1,1
11.07.2018 17:00:00 16,1 15,4 16,4 18,7 19,1 18,8 8 4 16 9 SW 1015,6 4,3 0 6,6
11.07.2018 16:00:00 16,0 15,0 16,2 19,1 19,1 18,8 9 5 13 7 SW 1016,0 4,3 0 1,6
11.07.2018 15:00:00 16,0 14,5 15,8 19,5 19,1 18,8 9 5 13 7 W 1016,4 6 0 2,5
11.07.2018 14:00:00 17,4 13,3 16,5 20,2 18,9 18,9 6 3 15 8 WSW 1016,4 6 0 0,6
11.07.2018 13:00:00 17,5 12,2 18,1 20,1 18,6 18,9 9 5 20 11 W 1016,7 25 0 0,0
11.07.2018 12:00:00 17,0 12,1 18,4 19,3 18,4 18,9 10 5 15 8 W 1017,1 22 0 0,0
11.07.2018 11:00:00 16,3 12,0 17,8 19,1 18,1 18,9 8 4 12 7 W 1017,3 18 0 0,0
11.07.2018 10:00:00 15,5 11,9 16,8 18,8 17,7 18,9 7 4 11 6 W 1017,5 14 21 0,0
11.07.2018 09:00:00 14,8 11,6 15,0 17,1 17,4 18,9 4 2 10 5 WSW 1017,6 13 41 0,0
11.07.2018 08:00:00 12,9 11,3 13,7 15,2 17,5 18,9 7 4 10 5 W 1017,7 8 49 0,0
11.07.2018 07:00:00 11,1 10,5 10,9 14,3 17,7 18,9 4 2 7 4 SSW 1017,5 3,7 0 0,0
11.07.2018 06:00:00 11,4 10,9 11,0 14,6 17,9 18,9 5 3 8 5 W 1017,2 4,2 0 0,0
11.07.2018 05:00:00 12,1 11,3 12,0 14,9 18,0 18,9 4 2 10 5 SW 1017,0 4,9 0 0,2
11.07.2018 04:00:00 12,1 11,4 12,0 14,8 18,3 18,9 5 3 11 6 W 1017,0 4,6 0 0,0
11.07.2018 03:00:00 12,0 11,0 10,9 14,8 18,5 18,9 7 4 17 9 NNE 1016,8 7 0 0,0
11.07.2018 02:00:00 12,8 11,5 12,5 15,0 18,8 18,9 11 6 16 8 NNW 1016,8 12 0 0,0
11.07.2018 01:00:00 12,9 11,2 11,1 15,7 19,1 18,9 7 4 19 10 NE 1016,4 15 0 0,0
11.07.2018 00:00:00 13,5 11,2 13,2 15,9 19,5 18,9 11 6 16 9 N 1016,4 27 0 0,0
10.07.2018 23:00:00 12,0 9,9 10,3 16,2 19,9 18,9 5 3 23 13 WNW 1016,1 37 0 0,0
10.07.2018 22:00:00 14,3 10,3 13,1 17,6 20,1 18,9 16 9 23 12 N 1015,6 69 15 0,0
10.07.2018 21:00:00 15,7 12,0 15,4 19,0 20,2 18,9 10 6 22 12 N 1014,8 30 13 0,0
10.07.2018 20:00:00 16,2 13,2 16,8 19,7 20,2 18,9 10 6 15 8 SSW 1014,2 25 40 0,0
10.07.2018 19:00:00 14,7 13,2 15,1 18,7 20,4 18,9 7 4 16 8 SSW 1014,0 20 0 0,1
10.07.2018 18:00:00 13,9 13,0 14,3 18,6 20,5 18,9 8 5 31 17 SW 1014,1 7 0 6,8

tt = temperature
td = dewpoint
tt 5cm = temperature 5cm
tt -5cm = temperature -5cm
tt -20cm = temperature -20cm
tt -100cm = temperature -100cm
ff = wind speed
fx = gusts
dd = wind direction
ppp = reduced air pressure
vv = visibility
sd = sunshine duration
rr = precipitation

Next stations